This demonstration page uses our WeatherBlox Daily Observations layout. Learn more.

Left ArrowRight Arrow

Hourly Observations for December 12, 2021

Temp ( °F °C ) Dew Point ( °F °C ) Humidity (%) Winds ( mph kmh ) Pressure ( in mb ) Visibility ( mi km ) Precip ( " mm )
12:56 am 00:56 Clear 29 -1.7 16 -8.9 58 58 SSW 15 24 29.98 1015 10 16 0.00 0.00
1:56 am 01:56 Clear 28 -2.2 15 -9.4 58 58 SSW 16 26 29.98 1015 10 16 0.00 0.00
2:56 am 02:56 Clear 28 -2.2 14 -10 56 56 SW 10 17 29.98 1015 10 16 0.00 0.00
3:56 am 03:56 Clear 26 -3.3 14 -10 60 60 SSW 9 15 29.97 1015 10 16 0.00 0.00
4:56 am 04:56 Clear 26 -3.3 14 -10 60 60 SSW 9 15 29.96 1015 10 16 0.00 0.00
5:56 am 05:56 Clear 26 -3.3 13 -10.6 57 57 SSW 14 22 29.96 1015 10 16 0.00 0.00
6:56 am 06:56 Clear 25 -3.9 13 -10.6 60 60 SSW 10 17 29.98 1015 10 16 0.00 0.00
7:56 am 07:56 Sunny 22 -5.6 13 -10.6 68 68 SSW 5 7 29.99 1016 10 16 0.00 0.00
8:56 am 08:56 Sunny 27 -2.8 15 -9.4 61 61 SW 9 15 29.98 1015 10 16 0.00 0.00
9:56 am 09:56 Sunny 31 -0.6 17 -8.3 56 56 SSW 9 15 29.97 1015 10 16 0.00 0.00
10:56 am 10:56 Sunny 35 1.7 19 -7.2 52 52 SSW 12 19 29.96 1015 10 16 0.00 0.00
11:56 am 11:56 Sunny 38 3.3 20 -6.7 48 48 S 10 17 29.92 1013 10 16 0.00 0.00
12:56 pm 12:56 Sunny 42 5.6 23 -5 47 47 S 13 20 29.90 1012 10 16 0.00 0.00
1:56 pm 13:56 Sunny 47 8.3 24 -4.4 41 41 S 12 19 29.85 1011 10 16 0.00 0.00
2:56 pm 14:56 Sunny 49 9.4 22 -5.6 35 35 S 13 20 29.84 1010 10 16 0.00 0.00
3:56 pm 15:56 Sunny 48 8.9 21 -6.1 34 34 S 16 26 29.83 1010 10 16 0.00 0.00
4:56 pm 16:56 Sunny 44 6.7 22 -5.6 41 41 SSW 15 24 29.87 1012 10 16 0.00 0.00
5:56 pm 17:56 Clear 41 5 21 -6.1 45 45 SSW 9 15 29.90 1013 10 16 0.00 0.00
6:56 pm 18:56 Clear 36 2.2 22 -5.6 57 57 NNW 3 6 29.95 1014 10 16 0.00 0.00
7:56 pm 19:56 Clear 37 2.8 22 -5.6 54 54 SW 5 7 29.96 1015 10 16 0.00 0.00
8:56 pm 20:56 Clear 33 0.6 22 -5.6 64 64 SSW 9 15 29.96 1015 10 16 0.00 0.00
9:56 pm 21:56 Clear 32 0 22 -5.6 66 66 Calm 29.98 1015 10 16 0.00 0.00
10:56 pm 22:56 Clear 31 -0.6 21 -6.1 67 67 SW 5 7 29.99 1016 10 16 0.00 0.00
11:56 pm 23:56 Clear 31 -0.6 21 -6.1 67 67 WSW 7 11 30.00 1016 10 16 0.00 0.00

Powered by AerisWeather